Flag for Canada Weather past 2 weeks in Hay River, Northwest Territories, Canada

34 °F


Feels Like: 24 °F
Forecast: 33 / 42 °F
Wind: 15 mph from Southeast

Location: Hay River

Current Time: Oct 9, 2015 at 8:35:34 PM

Latest Report: Oct 9, 2015 at 7:00 PM

Visibility: 15 mi

Pressure: 29.49 "Hg

Humidity: 93%

Dew point: 32 °F

Location of Hay RiverLocation

Historic Weather in Hay River — Graph


Hay River temperature yesterday

Maximum temperature yesterday: 39 °F (at 12:00 PM)
Minimum temperature yesterday: 30 °F (at 12:00 AM)
Average temperature yesterday: 34 °F

Past Weeks' High & Low Weather Summary

High73 °F (Sep 30, 2:00 PM)100% (Oct 7, 11:00 PM)30.54 "Hg (Oct 7, 11:00 PM)
Low25 °F (Sep 28, 8:00 AM)38% (Sep 30, 2:00 PM)29.47 "Hg (Sep 26, 1:00 PM)
Average42 °F73%29.94 "Hg
* Reported Sep 24 7:00 PM — Oct 9 7:00 PM, Hay River, Weather by CustomWeather, © 2015

Note: Actual official high and low records may vary slightly from our data, if they occured in-between our weather recording intervals... More about our weather records


Hay River weather history for previous 24 hours

Time TempWeatherWind HumidityBarometerVisibility
7:00 PM
Fri, Oct 9
34 °FOvercast.15 mph93%29.49 "Hg15 mi
6:00 PM34 °FLow clouds.9 mph93%29.54 "Hg15 mi
5:00 PM36 °FLow clouds.10 mph87%29.59 "Hg15 mi
4:00 PM36 °FLow clouds.9 mph87%29.63 "Hg15 mi
3:00 PM36 °FLow clouds.10 mph87%29.65 "Hg15 mi
2:00 PM36 °FLow clouds.12 mph87%29.68 "Hg15 mi
1:00 PM34 °FMostly cloudy.10 mph93%29.71 "Hg15 mi
12:00 PM34 °FMostly cloudy.13 mph93%29.73 "Hg15 mi
11:00 AM34 °FMostly cloudy.13 mph87%29.76 "Hg15 mi
10:00 AM34 °FMostly cloudy.16 mph93%29.78 "Hg15 mi
9:00 AM34 °FLow clouds.16 mph93%29.80 "Hg15 mi
8:00 AM34 °FLight snow. Passing clouds.15 mph93%29.83 "Hg12 mi
7:00 AM32 °FLight snow. Mostly cloudy.13 mph93%29.85 "Hg6 mi
6:48 AM32 °FLight snow. Mostly cloudy.14 mph100%29.85 "Hg5 mi
6:00 AM32 °FHail. Mostly cloudy.12 mph93%29.88 "Hg3 mi
5:00 AM32 °FSleet. Low clouds.13 mph93%29.90 "Hg3 mi
4:00 AM30 °FSleet. Low clouds.12 mph93%29.91 "Hg5 mi
3:52 AM30 °FSleet. Low clouds.14 mph93%29.92 "Hg5 mi
3:00 AM30 °FLight snow. Overcast.14 mph93%29.94 "Hg4 mi
2:00 AM30 °FLight snow. Overcast.14 mph93%29.98 "Hg5 mi
1:00 AM30 °FLight snow. Overcast.10 mph86%30.01 "Hg3 mi
12:00 AM32 °FLight snow. Overcast.9 mph80%30.04 "Hg6 mi
11:00 PM
Thu, Oct 8
34 °FLight snow. Overcast.13 mph65%30.06 "Hg10 mi
10:54 PM34 °FLight snow. Overcast.13 mph65%30.06 "Hg10 mi
10:00 PM34 °FPassing clouds.13 mph65%30.08 "Hg15 mi
9:00 PM34 °FPartly cloudy.10 mph65%30.11 "Hg15 mi
8:00 PM36 °FPartly cloudy.13 mph65%30.13 "Hg15 mi
Weather by CustomWeather, © 2015

See weather overviewHow to use our weather pages